sat.trackr.live / text

‹ back to catalog

STARLINK-36993

NORAD 67994 · 2026-039J

PAYLOAD ACTIVE UNKNOWN

§ Identity

Operator
Country
US
Launch date
2026-02-27
Launch site
AFETR
Launch vehicle
Mass (kg)
RCS (m²)

Purposes: comms

External: N2YO · Heavens-Above · Gunter

§ Orbital elements

Epoch: 2026-09-20T02:01:46.689888Z

Period
94.27 min
Inclination
43.0038°
Eccentricity
0.0003253
Mean motion
15.27583811 rev/d
Perigee alt
480.8 km
Apogee alt
485.3 km
Semi-major
6,861.2 km
B*
5.5834e-4
RAAN
31.0848°
Arg perigee
268.0923°
Mean anomaly
91.9556°
Rev number
3,143

§ Raw data

STARLINK-369931 67994U 26039J   26263.08456817  .00015137  00000+0  55834-3 0  99972 67994  43.0038  31.0848 0003253 268.0923  91.9556 15.27583811 31439

JSON: /api/v1/satellites/67994 · /tle

For live sub-satellite position, see the globe view (requires WebGL).

§ Visibility from observer

Set your observer location to see the next 7 days of passes ≥ 10°. The values pass through the URL so the page stays shareable.

No JS? Fill the form by hand. The geolocation button needs JavaScript.